Date String (YYYY-MM-DD hh:mm:ss) UTC,Instrument flags,Ambient pressure (hPa),Sample flow (lpm),Bypass flow (lpm),Sample temperature (°C),Ambient temperature (°C),ASC tube jacket temperature (°C),LED temperature (°C),Box temperature (°C),Sample RH (%),Span deviation,Mass concentration (μg/m³),Mass concentration (μg/m³),Mass concentration (μg/m³)
DateTimeUTC,F1_M11,P_M11,Q1_M11,Q2_M11,T1_M11,T2_M11,T3_M11,T4_M11,T5_M11,U1_M11,ZSPAN_M11,X0_M11,X2_M11,X1_M11
2022-08-15 08:00:00,,0829.0,4.99,0.00,31.7,28.5,00.0,39.6,32.2,33.0,0000.0,0007.47,0004.33,0003.92
2022-08-15 08:01:00,,0828.8,5.00,0.00,31.7,27.9,00.0,39.6,32.0,33.3,0000.0,0007.52,0004.35,0003.93
2022-08-15 08:02:00,,0828.8,5.01,0.00,31.6,27.7,00.0,39.6,31.9,33.5,0000.0,0007.79,0004.36,0003.93
2022-08-15 08:03:00,,0828.7,5.01,0.00,31.4,27.7,00.0,39.6,31.8,33.3,0000.0,0007.68,0004.34,0003.92
2022-08-15 08:04:00,,0828.4,4.98,0.00,31.3,27.8,00.0,39.6,31.9,33.6,0000.0,0007.71,0004.34,0003.91
2022-08-15 08:05:00,,0828.5,5.01,0.00,31.3,28.0,00.0,39.6,31.9,33.9,0000.0,0008.19,0004.35,0003.90
2022-08-15 08:06:00,,0828.5,4.99,0.00,31.2,28.1,00.0,39.6,31.9,33.6,0000.0,0008.55,0004.35,0003.88
2022-08-15 08:07:00,,0828.5,5.00,0.00,31.2,28.3,00.0,39.6,32.0,33.3,0000.0,0008.57,0004.33,0003.85
2022-08-15 08:08:00,,0828.5,4.99,0.00,31.1,28.4,00.0,39.6,32.0,32.9,0000.0,0008.56,0004.33,0003.84
2022-08-15 08:09:00,,0828.5,5.00,0.00,31.1,28.5,00.0,39.6,32.0,33.3,0000.0,0008.55,0004.31,0003.82
2022-08-15 08:10:00,,0828.5,5.00,0.00,31.0,28.6,00.0,39.6,32.0,33.6,0000.0,0008.54,0004.31,0003.81
2022-08-15 08:11:00,,0828.5,4.99,0.00,31.0,28.7,00.0,39.6,32.0,33.3,0000.0,0008.50,0004.30,0003.80
2022-08-15 08:12:00,,0828.7,5.01,0.00,31.0,28.8,00.0,39.6,32.1,34.3,0000.0,0008.42,0004.25,0003.78
2022-08-15 08:13:00,,0828.4,5.00,0.00,31.0,28.9,00.0,39.6,32.1,34.5,0000.0,0008.10,0004.23,0003.76
2022-08-15 08:14:00,,0828.5,4.99,0.00,31.0,28.9,00.0,39.6,32.1,34.3,0000.0,0008.02,0004.22,0003.76
2022-08-15 08:15:00,,0828.4,5.00,0.00,30.9,29.0,00.0,39.6,32.1,34.4,0000.0,0007.94,0004.22,0003.76
2022-08-15 08:16:00,,0828.7,5.00,0.00,30.9,28.9,00.0,39.5,32.1,34.3,0000.0,0007.49,0004.21,0003.76
2022-08-15 08:17:00,,0828.8,5.00,0.00,30.9,28.2,00.0,39.5,31.9,34.5,0000.0,0006.91,0004.21,0003.77
2022-08-15 08:18:00,,0828.6,5.02,0.00,30.8,27.8,00.0,39.4,31.9,35.0,0000.0,0006.75,0004.19,0003.78
2022-08-15 08:19:00,,0828.6,4.99,0.00,30.8,27.7,00.0,39.4,31.9,35.0,0000.0,0007.33,0004.22,0003.80
2022-08-15 08:20:00,,0829.0,5.00,0.00,31.0,27.8,00.0,39.3,31.9,34.7,0000.0,0007.60,0004.21,0003.80
2022-08-15 08:21:00,,0829.0,5.01,0.00,31.0,27.9,00.0,39.3,31.9,34.5,0000.0,0007.58,0004.21,0003.80
2022-08-15 08:22:00,,0829.1,4.99,0.00,31.0,28.0,00.0,39.3,31.9,34.7,0000.0,0007.57,0004.20,0003.81
2022-08-15 08:23:00,,0828.9,5.01,0.00,31.0,28.2,00.0,39.3,31.9,34.7,0000.0,0007.71,0004.23,0003.82
2022-08-15 08:24:00,,0829.0,5.00,0.00,31.0,28.3,00.0,39.4,31.9,34.8,0000.0,0007.76,0004.25,0003.83
2022-08-15 08:25:00,,0828.8,4.98,0.00,31.0,28.4,00.0,39.4,32.0,34.9,0000.0,0007.73,0004.24,0003.83
2022-08-15 08:26:00,,0829.0,5.01,0.00,31.0,28.5,00.0,39.4,32.0,35.0,0000.0,0007.81,0004.28,0003.84
2022-08-15 08:27:00,,0829.1,4.99,0.00,31.2,28.6,00.0,39.4,32.1,34.7,0000.0,0007.94,0004.29,0003.84
2022-08-15 08:28:00,,0828.9,5.00,0.00,31.3,28.7,00.0,39.4,32.2,34.6,0000.0,0008.00,0004.33,0003.84
2022-08-15 08:29:00,,0829.0,5.00,0.00,31.3,28.8,00.0,39.4,32.2,34.7,0000.0,0008.39,0004.36,0003.83
2022-08-15 08:30:00,,0829.0,4.99,0.00,31.4,28.9,00.0,39.5,32.2,34.6,0000.0,0008.60,0004.37,0003.83
2022-08-15 08:31:00,,0829.0,5.01,0.00,31.4,28.9,00.0,39.5,32.2,34.5,0000.0,0008.27,0004.39,0003.83
2022-08-15 08:32:00,,0829.0,5.00,0.00,31.3,28.5,00.0,39.5,32.0,34.4,0000.0,0008.27,0004.39,0003.83
2022-08-15 08:33:00,,0828.7,5.00,0.00,31.2,27.7,00.0,39.5,31.8,34.5,0000.0,0008.38,0004.45,0003.85
2022-08-15 08:34:00,,0828.5,5.00,0.00,31.1,27.3,00.0,39.5,31.7,34.8,0000.0,0008.33,0004.47,0003.87
2022-08-15 08:35:00,,0828.5,4.99,0.00,31.0,27.2,00.0,39.4,31.6,35.4,0000.0,0008.28,0004.47,0003.90
2022-08-15 08:36:00,,0828.4,5.01,0.00,31.1,27.3,00.0,39.4,31.8,35.4,0000.0,0008.39,0004.53,0003.94
2022-08-15 08:37:00,,0828.4,5.00,0.00,31.4,27.4,00.0,39.4,32.0,35.0,0000.0,0008.40,0004.55,0003.96
2022-08-15 08:38:00,,0828.4,5.00,0.00,31.6,27.6,00.0,39.4,32.1,34.4,0000.0,0008.23,0004.54,0003.99
2022-08-15 08:39:00,,0828.4,4.99,0.00,31.7,27.8,00.0,39.4,32.0,34.2,0000.0,0008.18,0004.51,0004.01
2022-08-15 08:40:00,,0828.5,5.00,0.00,31.8,27.9,00.0,39.4,32.0,34.2,0000.0,0008.08,0004.54,0004.04
2022-08-15 08:41:00,,0828.5,5.00,0.00,31.7,28.1,00.0,39.5,32.0,34.2,0000.0,0007.62,0004.56,0004.06
2022-08-15 08:42:00,,0828.5,5.00,0.00,31.7,28.2,00.0,39.5,32.0,34.3,0000.0,0007.72,0004.58,0004.09
2022-08-15 08:43:00,,0828.5,5.01,0.00,31.7,28.4,00.0,39.6,32.0,34.5,0000.0,0007.92,0004.65,0004.13
2022-08-15 08:44:00,,0828.5,4.99,0.00,31.7,28.5,00.0,39.6,32.1,34.6,0000.0,0008.00,0004.66,0004.16
2022-08-15 08:45:00,,0828.6,4.99,0.00,31.6,28.6,00.0,39.7,32.1,34.4,0000.0,0008.27,0004.69,0004.17
2022-08-15 08:46:00,,0828.5,5.00,0.00,31.6,28.7,00.0,39.7,32.1,34.3,0000.0,0008.46,0004.71,0004.17
2022-08-15 08:47:00,,0828.5,5.00,0.00,31.5,28.7,00.0,39.7,32.1,34.5,0000.0,0008.51,0004.73,0004.19
2022-08-15 08:48:00,,0828.5,4.99,0.00,31.5,28.8,00.0,39.8,32.2,34.6,0000.0,0008.51,0004.72,0004.20
2022-08-15 08:49:00,,0828.5,5.00,0.00,31.5,28.9,00.0,39.8,32.2,34.7,0000.0,0008.72,0004.75,0004.21
2022-08-15 08:50:00,,0828.5,4.99,0.00,31.4,28.9,00.0,39.8,32.2,34.8,0000.0,0009.20,0004.81,0004.24
2022-08-15 08:51:00,,0828.5,4.99,0.00,31.4,29.0,00.0,39.8,32.2,34.7,0000.0,0009.23,0004.82,0004.25
2022-08-15 08:52:00,,0828.5,5.01,0.00,31.4,29.0,00.0,39.8,32.2,34.8,0000.0,0009.42,0004.82,0004.26
2022-08-15 08:53:00,,0828.5,4.99,0.00,31.4,28.4,00.0,39.7,32.1,35.2,0000.0,0009.62,0004.81,0004.26
2022-08-15 08:54:00,,0828.4,5.01,0.00,31.5,27.9,00.0,39.7,32.1,35.3,0000.0,0009.56,0004.81,0004.27
2022-08-15 08:55:00,,0828.4,4.99,0.00,31.6,27.8,00.0,39.7,32.1,34.6,0000.0,0009.55,0004.83,0004.27
2022-08-15 08:56:00,,0828.4,5.01,0.00,31.7,27.8,00.0,39.6,32.1,34.4,0000.0,0009.25,0004.80,0004.27
2022-08-15 08:57:00,,0828.4,4.99,0.00,31.7,27.9,00.0,39.6,32.0,34.2,0000.0,0009.31,0004.80,0004.26
2022-08-15 08:58:00,,0828.4,5.00,0.00,31.7,28.0,00.0,39.7,32.0,34.2,0000.0,0009.23,0004.77,0004.24
2022-08-15 08:59:00,,0828.4,5.01,0.00,31.7,28.1,00.0,39.7,32.1,34.2,0000.0,0009.25,0004.78,0004.24
